www.pogodaiklimat.ru

Погода и климат >> Архив погоды >> Австрия >> Клагенфурт


ПОГОДА в Клагенфурте

  • Прогноз погоды в Клагенфурте
  • Монитор погоды в Клагенфурте

АРХИВ ПОГОДЫ в Клагенфурте

Время (UTC), дата Ветер
(напр.,м/с)
 
Видим.   Явления Облачность Т
(С)
Тd
(С)
f
(%)
Тe
(С)
Тes
(С)
Комфортность P
(гПа)
Po
(гПа)
Тmin
(С)
Tmax
(С)
R
(мм)
R24
(мм)
S
(см)
10 11.07 40 км 8/8 1500 м
[]
+19.9 +9.7 52 1014.5 960.3
11 11.07 60 км 8/8 1500 м
[]
+21.0 +8.5 45 1013.6 959.7
12 11.07 С 2 50 км 8/8 1500 м
[]
+21.7 +8.5 43 +23 +26 комфорт 1013.0 959.2
13 11.07 50 км 8/8 1500 м
[]
+22.7 +7.6 38 1012.1 958.5
14 11.07 50 км 9/9 1500 м
[]
+22.7 +6.2 34 1011.7 958.1
15 11.07 55 км 9/9 1500 м
[]
+22.7 +7.0 36 1011.4 957.8
16 11.07 65 км 9/9 1500 м
[]
+22.4 +7.0 37 1011.1 957.5
17 11.07 55 км 9/9 1500 м
[]
+21.5 +9.6 47 1011.3 957.6
18 11.07 С 2 65 км 10/0
[]
+21.4 +9.2 46 +23 +23 комфорт 1011.4 957.6 +23.1
19 11.07 60 км 10/0
[]
+19.5 +11.8 61 1012.1 958.0
20 11.07 9000 м 10/0
[]
+18.6 +11.7 64 1012.8 958.5
21 11.07 С 2 40 км слаб. дождь 10/10 1440 м
[]
+18.0 +12.0 68 +19 +19 1013.6 959.2 0.0
22 11.07 35 км слаб. ливневой дождь 10/0
[]
+17.5 +14.1 80 1014.0 959.5 0.4
23 11.07 40 км 10/0
[]
+17.0 +14.1 83 1014.1 959.5 0.0
00 12.07 С 2 30 км 10/0
[]
+16.4 +14.6 89 +16 +16 1013.8 959.1 0.6
01 12.07 28 км 10/0
[]
+16.1 +14.2 88 1013.5 958.8
02 12.07 29 км 10/0
[]
+15.5 +13.8 90 1013.6 958.8
03 12.07 С 1 30 км 8/8 270 м
[]
+14.9 +13.4 91 +15 +15 1013.8 958.8
04 12.07 40 км 9/9 300 м
[]
+14.6 +13.0 90 1014.1 959.0
05 12.07 30 км 9/9 400 м
[]
+15.1 +13.0 87 1014.2 959.2
06 12.07 35 км 9/9 360 м
[]
+16.8 +14.3 85 1013.9 959.3 +14.5 0.6
07 12.07 50 км 9/9 400 м
[]
+17.6 +13.8 78 1013.8 959.3
08 12.07 50 км 9/9 480 м
[]
+20.1 +14.6 71 1013.0 959.0
09 12.07 С 3 35 км 8/8 1500 м
[]
+20.7 +13.0 61 +23 +26 комфорт 1012.6 958.7
10 12.07 55 км 8/8 1200 м
[]
+21.6 +12.3 55 1012.0 958.3
11 12.07 50 км 8/8 1500 м
[]
+22.2 +12.2 53 1011.6 958.0
12 12.07 С 2 50 км 6/6 1500 м
[]
+23.8 +11.6 46 +25 +32 комфорт 1010.4 957.2
13 12.07 40 км 5/5 1500 м
[]
+25.2 +10.3 39 1009.6 956.6
14 12.07 50 км 8/8 1500 м
[]
+26.0 +10.7 38 1008.9 956.1
15 12.07 С 2 60 км 8/8 1500 м
[]
+25.1 +9.8 38 +26 +27 жарко 1008.4 955.5
16 12.07 СЗ 6 17 км слаб. ливневой дождь 9/9 1500 м
[]
+20.7 +14.2 66 +23 +23 комфорт 1009.3 955.6 0.2
17 12.07 В 4 65 км 9/9 1350 м
[]
+20.2 +14.7 71 +23 +23 комфорт 1009.6 955.8 3
18 12.07 ЮВ 3 6000 м гроза, ливневой дождь 9/9 750 м
[]
+16.1 +14.3 89 +16 +16 1012.2 957.5 +26.4 15
19 12.07 30 км слаб. ливневой дождь 6/6 150 м
[]
+15.4 +13.8 90 1012.8 958.0 0.9
20 12.07 50 км 3/3 150 м
[]
+14.7 +13.1 90 1013.4 958.4 0.0
21 12.07 26 км 5/5 150 м
[]
+14.3 +13.2 93 1013.7 958.6
22 12.07 35 км 9/9 1200 м
[]
+14.5 +13.6 94 1013.6 958.6
23 12.07 5000 м 9/9 30 м
[]
+14.1 +13.3 95 1013.4 958.3
00 13.07 С 2 17 км 10/10 60 м
[]
+14.3 +13.6 96 +14 +14 1013.7 958.6 0.8
01 13.07 9000 м ливневой дождь 10/10 30 м
[]
+14.6 +14.0 96 1012.7 957.7 15
02 13.07 35 км 9/9 180 м
[]
+14.3 +13.5 95 1012.6 957.6 0.2
03 13.07 С 2 10 км 10/10 120 м
[]
+13.8 +13.3 97 +13 +13 1012.5 957.4
04 13.07 20 км 9/9 90 м
[]
+14.0 +13.4 96 1012.2 957.1
05 13.07 27 км 9/9 90 м
[]
+14.4 +13.6 95 1012.1 957.1
06 13.07 С 1 35 км 9/9 90 м
[]
+14.8 +13.3 91 +15 +16 1012.2 957.3 +13.6 18
07 13.07 35 км 10/10 150 м
[]
+15.8 +14.2 90 1012.0 957.3
08 13.07 35 км 9/9 150 м
[]
+16.8 +13.7 82 1012.2 957.7
09 13.07 С 1 45 км 8/8 360 м
[]
+18.2 +13.5 74 +20 +23 1011.9 957.6
10 13.07 55 км 5/5 600 м
[]
+20.4 +13.3 64 1011.3 957.4
11 13.07 СВ 4 65 км 5/5 1500 м
[]
+21.3 +12.7 58 +24 +30 комфорт 1010.9 957.2
12 13.07 С 2 55 км гроза без осадков 6/6 1350 м
[]
+20.7 +12.1 58 +24 +31 комфорт 1011.2 957.4 5
14 13.07 70 км 5/5 1500 м
[]
+22.0 +8.2 41 1010.4 956.8 0.0
15 13.07 СВ 5 70 км 6/6 1500 м
[]
+22.9 +8.4 39 +24 +26 комфорт 1010.1 956.7
17 13.07 С 7 70 км 6/6 1500 м
[]
+21.7 +6.5 37 +22 +23 комфорт 1011.0 957.3
18 13.07 СЗ 3 70 км 5/5 1500 м
[]
+21.1 +6.2 38 +22 +22 комфорт 1011.9 958.0 +23.4 6
19 13.07 70 км 8/8 1500 м
[]
+19.4 +8.1 48 1012.6 958.4
20 13.07 55 км 1/0 2000 м
[]
+16.6 +9.4 62 1013.8 959.1
21 13.07 40 км 10/0 2000 м
[]
+16.2 +9.8 66 1014.1 959.3
22 13.07 70 км 10/0
[]
+15.4 +10.1 71 1014.4 959.4
23 13.07 70 км 10/0
[]
+14.9 +9.9 72 1014.5 959.4
00 14.07 55 км 1/0
[]
+14.0 +9.6 75 1014.4 959.1
01 14.07 60 км 3/0
[]
+13.2 +9.8 80 1014.3 958.9
02 14.07 70 км н/о +12.1 +9.5 84 1014.1 958.5
03 14.07 60 км н/о +11.4 +8.8 84 1014.3 958.5
04 14.07 60 км 3/0 2000 м
[]
+10.8 +8.5 86 1014.6 958.7
05 14.07 55 км 5/0 2000 м
[]
+12.1 +9.0 81 1014.5 958.9
06 14.07 С 2 45 км 5/5 1500 м
[]
+13.0 +9.6 80 +12 +14 1014.4 959.0 +10.7
07 14.07 70 км 5/5 1500 м
[]
+17.4 +9.6 60 1013.7 959.1
08 14.07 55 км 5/5 1500 м
[]
+19.8 +10.6 55 1013.2 959.1
09 14.07 С 2 65 км 5/5 1500 м
[]
+21.6 +9.2 45 +23 +30 комфорт 1012.7 958.9
10 14.07 70 км 8/8 1500 м
[]
+21.9 +8.3 42 1012.3 958.6
11 14.07 65 км 9/9 1500 м
[]
+21.6 +8.9 44 1012.6 958.8
12 14.07 В 3 60 км 9/9 1500 м
[]
+21.3 +11.4 53 +23 +25 комфорт 1012.6 958.8 0.4
13 14.07 В 6 60 км 8/8 1500 м
[]
+22.0 +10.8 49 +24 +25 комфорт 1012.4 958.7
14 14.07 С 5 45 км 8/8 1500 м
[]
+20.2 +11.7 58 +22 +23 комфорт 1012.4 958.4
15 14.07 С 3 55 км 8/8 1500 м
[]
+20.1 +11.0 56 +22 +23 комфорт 1012.1 958.1
16 14.07 60 км 6/6 1500 м
[]
+19.9 +12.4 62 1012.1 958.1
17 14.07 55 км 6/6 1500 м
[]
+20.2 +13.2 64 1011.9 958.0
18 14.07 С 2 70 км 6/0
[]
+19.7 +12.6 64 +22 +22 комфорт 1012.0 958.0 +22.5 0.4
19 14.07 >70 км 10/0
[]
+18.8 +12.7 68 1012.5 958.3
20 14.07 70 км 9/0
[]
+18.1 +12.4 69 1013.1 958.7
21 14.07 65 км 6/0
[]
+16.8 +12.7 77 1013.4 958.8
22 14.07 70 км 8/8 1500 м
[]
+16.3 +11.8 75 1013.8 959.1
23 14.07 >70 км 4/4 1500 м
[]
+15.4 +11.7 79 1014.1 959.2
00 15.07 С 2 >70 км 1/0 2000 м
[]
+14.3 +11.8 85 +14 +14 1014.3 959.1
01 15.07 65 км 9/9 1500 м
[]
+13.9 +11.8 87 1014.1 958.9
02 15.07 55 км 10/10 1500 м
[]
+13.6 +11.5 87 1014.1 958.8
03 15.07 С 2 65 км 10/10 1500 м
[]
+13.9 +11.5 85 +13 +13 1013.9 958.7
04 15.07 60 км 9/9 900 м
[]
+13.9 +11.4 85 1014.3 959.1
05 15.07 50 км 8/8 600 м
[]
+15.0 +11.2 78 1014.1 959.1 0.3
06 15.07 С 1 45 км 4/4 600 м
[]
+16.5 +11.3 71 +17 +20 1013.7 959.0 +13.4 0.3
07 15.07 50 км 4/4 600 м
[]
+17.9 +11.9 68 1013.3 958.9
08 15.07 60 км 4/4 900 м
[]
+19.7 +11.9 61 1013.0 958.9
09 15.07 С 2 50 км 5/5 1200 м
[]
+21.0 +11.1 53 +24 +31 комфорт 1012.7 958.8
10 15.07 55 км 6/6 1500 м
[]
+21.4 +10.3 49 1012.4 958.6
11 15.07 50 км 5/5 1500 м
[]
+21.7 +9.3 45 1012.1 958.4
12 15.07 ЮВ 4 55 км 6/6 1500 м
[]
+22.7 +10.0 44 +24 +29 комфорт 1011.7 958.2
13 15.07 55 км 9/9 1500 м
[]
+22.2 +9.6 45 1011.8 958.2
14 15.07 В 4 45 км 9/9 1500 м
[]
+23.1 +10.7 46 +25 +26 комфорт 1011.5 958.1
15 15.07 В 6 45 км 8/8 1500 м
[]
+22.2 +9.1 43 +24 +24 комфорт 1011.8 958.2
16 15.07 В 4 60 км 8/8 1500 м
[]
+22.2 +9.2 43 +24 +24 комфорт 1011.7 958.1
17 15.07 65 км 8/8 1500 м
[]
+21.4 +9.5 47 1012.0 958.2
18 15.07 В 3 17 км 8/8 1500 м
[]
+21.2 +9.2 46 +22 +22 комфорт 1012.6 958.7 +23.5 0.1
19 15.07 60 км 6/6 1500 м
[]
+19.8 +9.7 52 1013.0 958.9 0.1
20 15.07 50 км 5/5 1500 м
[]
+18.6 +10.8 60 1014.0 959.6
21 15.07 С 2 60 км 4/4 1500 м
[]
+17.4 +12.0 71 +18 +18 1014.6 960.0
22 15.07 50 км 3/3 1500 м
[]
+15.9 +11.9 77 1015.2 960.3
23 15.07 45 км 9/9 1500 м
[]
+15.1 +11.7 80 1015.6 960.5
00 16.07 45 км н/о +14.2 +11.3 83 1015.9 960.6 0.0
01 16.07 45 км 3/3 1500 м
[]
+13.3 +10.7 84 1016.2 960.7
02 16.07 35 км н/о +12.6 +10.8 89 1016.4 960.8
03 16.07 30 км 4/0
[]
+12.0 +10.4 90 1016.5 960.8
04 16.07 30 км 1/1 750 м
[]
+11.2 +9.7 90 1016.6 960.7
05 16.07 40 км 1/1 1200 м
[]
+12.2 +10.0 86 1016.7 961.0
06 16.07 50 км 1/1 1200 м
[]
+15.4 +10.6 73 1016.2 961.1 +11.2 0.1
07 16.07 50 км 1/1 1500 м
[]
+16.5 +11.8 74 1015.8 961.0
08 16.07 45 км 1/1 1500 м
[]
+19.1 +12.1 64 1015.0 960.7
09 16.07 60 км 1/1 1500 м
[]
+20.9 +10.6 52 1014.0 960.1
10 16.07 50 км 3/3 1500 м
[]
+22.6 +10.6 47 1013.3 959.7
11 16.07 27 км 3/3 1500 м
[]
+23.5 +9.9 42 1013.0 959.5
12 16.07 С 3 30 км 4/4 1500 м
[]
+24.4 +8.8 37 +25 +34 комфорт 1012.5 959.2
13 16.07 40 км 4/4 1500 м
[]
+25.6 +8.8 34 1011.7 958.7
14 16.07 45 км 4/4 1500 м
[]
+25.7 +7.8 32 1011.4 958.4
15 16.07 С 2 65 км 4/4 1500 м
[]
+26.3 +8.3 32 +26 +31 жарко 1011.0 958.1
16 16.07 60 км 3/3 1500 м
[]
+25.3 +8.7 35 1010.6 957.6
17 16.07 45 км 3/3 1500 м
[]
+25.9 +7.2 30 1010.4 957.5
18 16.07 С 2 45 км 3/3 1500 м
[]
+25.0 +9.3 37 +26 +26 жарко 1010.7 957.6 +26.4
19 16.07 55 км 1/1 1500 м
[]
+21.8 +10.8 50 1011.7 958.0
20 16.07 55 км ясно +19.8 +11.6 59 1012.9 958.8
21 16.07 50 км ясно +17.8 +11.7 67 1013.8 959.3
22 16.07 40 км н/о +16.1 +11.6 75 1014.5 959.7
23 16.07 45 км н/о +15.0 +11.1 77 1015.3 960.2
00 17.07 45 км н/о +14.1 +10.7 80 1015.8 960.5
01 17.07 40 км н/о +13.3 +10.0 80 1015.8 960.4
02 17.07 40 км н/о +12.8 +10.0 83 1015.8 960.3
03 17.07 40 км н/о +12.2 +9.5 84 1016.0 960.3
04 17.07 35 км н/о +11.7 +9.0 83 1016.4 960.6
05 17.07 30 км н/о +12.5 +9.2 80 1016.3 960.7
06 17.07 С 1 45 км 1/0
[]
+15.5 +10.2 71 +16 +20 1015.5 960.5 +11.4
07 17.07 45 км 3/3 1500 м
[]
+18.4 +10.9 62 1014.6 960.2
08 17.07 35 км 4/4 1500 м
[]
+20.3 +11.6 57 1013.5 959.5
09 17.07 С 1 45 км 5/5 1500 м
[]
+22.5 +11.6 50 +25 +33 комфорт 1012.5 958.9
10 17.07 10 км 8/8 1500 м
[]
+24.6 +11.5 44 1011.3 958.2
11 17.07 40 км 8/8 1500 м
[]
+25.4 +10.6 39 1010.6 957.6
12 17.07 С 2 40 км 8/8 1500 м
[]
+26.9 +11.3 38 +28 +31 жарко 1009.7 957.0
13 17.07 ЮВ 3 35 км 8/8 1500 м
[]
+27.8 +12.2 38 +29 +32 жарко 1008.9 956.4
14 17.07 55 км 8/8 1500 м
[]
+28.4 +11.4 35 1008.2 955.9
15 17.07 В 3 45 км 4/4 1500 м
[]
+28.8 +12.3 36 +30 +34 жарко 1007.5 955.3
16 17.07 С 3 55 км 3/3 1500 м
[]
+28.5 +10.6 33 +29 +31 жарко 1007.0 954.7
17 17.07 С 2 65 км 8/8 1500 м
[]
+26.5 +11.3 39 +28 +28 жарко 1007.4 954.8
18 17.07 СЗ 8 40 км гроза, ливневой дождь 9/9 1500 м
[]
+22.6 +14.0 58 +26 +26 жарко 1009.5 956.1 +29.0 0.1
19 17.07 С 2
{16}
35 км гроза, ливневой дождь 10/10 1350 м
[]
+17.6 +14.0 79 +18 +18 1012.3 957.9 4
20 17.07 С 1 8000 м гроза, ливневой дождь 10/10 1350 м
[]
+16.9 +14.9 88 +18 +18 1014.4 959.8 5
21 17.07 С 1
{16}
13 км ливневой дождь 10/10 1200 м
[]
+15.9 +14.8 93 +17 +17 1015.0 960.2 8
22 17.07 С 2 12 км ливневой дождь 10/10 210 м
[]
+15.9 +15.1 95 +16 +16 1015.1 960.3 3
23 17.07 С 2 19 км слаб. дождь 10/10 420 м
[]
+15.9 +15.0 94 +16 +16 1015.2 960.4 1
00 18.07
{16}
29 км 10/10 150 м
[]
+16.1 +15.2 94 1014.8 960.0 0.5
01 18.07 27 км 10/10 90 м
[]
+15.7 +14.9 95 1013.8 959.0
02 18.07 5000 м 10/10 30 м
[]
+15.3 +14.7 96 1013.8 958.9
03 18.07 С 1 25 км 10/10 210 м
[]
+15.3 +14.4 94 +16 +16 1013.8 958.9
04 18.07 С 1 30 км 10/10 240 м
[]
+15.5 +14.5 94 +16 +16 1014.0 959.2
05 18.07 С 1 29 км 10/10 90 м
[]
+15.9 +14.6 92 +17 +17 1013.9 959.1
06 18.07 С 1 35 км 9/9 60 м
[]
+16.6 +15.1 91 +17 +18 1013.8 959.2 +15.2 21
07 18.07 35 км 9/9 120 м
[]
+17.2 +14.9 86 1014.0 959.5
08 18.07 40 км 9/9 180 м
[]
+18.1 +14.5 79 1013.8 959.4

 

Местоположение метеостанции Клагенфурт (Австрия): широта 46.65 долгота 14.33 высота над уровнем моря 476 м.

В архиве по умолчанию представлена погода в Клагенфурте за последнюю неделю. Архивные данные за месяц целиком и за предыдущие месяцы, начиная с января 2011 года, Вы можете получить, выбрав интересующий диапазон дат из раскрывающегося списка и нажав кнопку "Ввод!".


*Определитесь, кто Вы:
робот инопланетянин человек

Внимание! Время в таблицах - всемирное. Для получения местного времени необходимо прибавить поправку, которая равна 1 ч.

Смотрите также архив погоды в соседних городах и на ближайших метеорологических станциях:

Погода в Клагенфурте (Австрия) (2 км)
Погода в Пёрчах-ам-Вёртерзе (Австрия) (12 км)
Погода в Фельдкирхене (Австрия) (19 км)
Погода в Вайтенсфельд-им-Гурктале (Австрия) (24 км)
Погода Айзенкаппель-Феллах (Австрия) (28 км)
Погода в Лесце (Словения) (33 км)
Погода в Филлахе (Австрия) (35 км)
Погода в Файстриц-об-Блайбурге (Австрия) (35 км)
Погода в Арриахе (Австрия) (38 км)
Погода в Санкт-Андре (Австрия) (40 км)

Пояснения к столбцам:

Ветер - указаны скорость ветра в м/с - средняя за 10 мин, порывы в срок и между сроками (в фигурных скобках) и направление, откуда дует ветер: С - северный, СВ - северо-восточный, В - восточный, ЮВ - юго-восточный, Ю - южный, ЮЗ - юго-западный, З - западный, СЗ - северо-западный.
Видимость - горизонтальная дальность видимости в метрах или километрах. При видимости от 1 до 10 км при отсутствии осадков обычно наблюдается дымка, при ухудшении видимости до 1 км и менее - туман. В сухую погоду видимость может ухудшаться дымом, пылью или мглою.
Явления - указаны атмосферные явления, наблюдавшиеся в срок или в последний час перед сроком; фигурными скобками обозначены явления, наблюдавшиеся между сроками (за 1-3 часа до срока); квадратными скобками обозначены град или гололедные отложения с указанием их диаметра в мм.
Облачность - указаны через наклонную черту общая и нижняя облачность в баллах и высота нижней границы облаков в метрах; квадратными скобками обозначены формы облаков: Ci - перистые, Cs - перисто-слоистые, Cc - перисто-кучевые, Ac - высококучевые, As - высокослоистые, Sc - слоисто-кучевые, Ns - слоисто-дождевые, Cu - кучевые, Cb - кучево-дождевые. Подробнее классификацию облаков см. в Атласе облаков (PDF).
T - Температура воздуха - температура, измеренная на высоте 2 м над землей.
Td - Температура точки росы - температура, при понижении до которой содержащийся в воздухе водяной пар достигнет насыщения.
f - Относительная влажность воздуха - влажноcть воздуха, измеренная на высоте 2 м над землей.
Te - Эффективная температура - температура, которую ощущает одетый по сезону человек в тени. Характеристика душности погоды. При расчете учитывается влияние влажности воздуха и скорости ветра на теплоощущения человека.
Tes - Эффективная температура на солнце - температура, которую ощущает человек, с поправкой на солнечный нагрев. Характеристика знойности погоды. Зависит от высоты солнца над горизонтом, облачности и скорости ветра. Ночью, в пасмурную погоду, а также при ветре 12 м/с и более поправка равна нулю.
P - Атмосферное давление - приведенное к уровню моря атмосферное давление.
Po - Атмосферное давление - измеренное на уровне метеостанции атмосферное давление.
Tmin - Минимальная температура - минимум температуры воздуха на высоте 2 м над землей.
Tmax - Максимальная температура - максимум температуры воздуха на высоте 2 м над землей.
R - Количество осадков - Количество выпавших осадков за период времени, мм. При наведении курсора мыши на число - период времени, за который выпало указанное количество осадков.
R24 - Количество осадков - Количество выпавших осадков за 24 часа, мм.
S - Снежный покров - Высота снежного покрова, см. При наведении курсора мыши на число - состояние снежного покрова и степень покрытия местности в баллах.